This demonstration page uses our WeatherBlox Daily Observations layout. Learn more.

Left ArrowRight Arrow

Hourly Observations for October 26, 2021

Temp ( °F °C ) Dew Point ( °F °C ) Humidity (%) Winds ( mph kmh ) Pressure ( in mb ) Visibility ( mi km ) Precip ( " mm )
12:54 am 00:54 Clear 45 7.2 39 3.9 80 80 SSE 12 19 30.04 1017 10 16 N/A
1:54 am 01:54 Clear 41 5 38 3.3 89 89 S 7 11 30.03 1017 10 16 N/A
2:54 am 02:54 Clear 44 6.7 39 3.9 83 83 SSE 12 19 30.01 1016 10 16 N/A
3:31 am 03:31 Mostly Cloudy 44 6.7 39 3.9 83 83 SSE 13 20 30.02 1016 10 16 N/A
3:39 am 03:39 Mostly Cloudy 44 6.7 40 4.4 85 85 SSE 15 24 30.01 1016 10 16 N/A
3:54 am 03:54 Cloudy 43 6.1 39 3.9 86 86 SSE 17 28 29.99 1016 10 16 N/A
4:54 am 04:54 Cloudy 43 6.1 40 4.4 89 89 SE 10 17 29.98 1015 7 11 N/A
5:54 am 05:54 Cloudy with Mist and Fog 45 7.2 41 5 86 86 SSE 14 22 29.96 1015 6 10 N/A
6:54 am 06:54 Cloudy 45 7.2 41 5 86 86 SE 16 26 29.94 1014 7 11 N/A
7:54 am 07:54 Cloudy 46 7.8 42 5.6 86 86 SE 16 26 29.91 1013 10 16 N/A
8:54 am 08:54 Cloudy 47 8.3 42 5.6 83 83 SE 17 28 29.90 1012 10 16 N/A
9:06 am 09:06 Cloudy 48 8.9 43 6.1 83 83 SE 16 26 29.91 1013 10 16 N/A
9:54 am 09:54 Cloudy 48 8.9 43 6.1 83 83 SE 18 30 29.88 1012 10 16 N/A
10:54 am 10:54 Cloudy 51 10.6 43 6.1 74 74 SE 21 33 29.85 1011 10 16 N/A
11:14 am 11:14 Cloudy 51 10.6 44 6.7 77 77 SE 18 30 29.84 1010 10 16 N/A
11:54 am 11:54 Cloudy 53 11.7 44 6.7 72 72 SE 15 24 29.80 1009 10 16 N/A
12:54 pm 12:54 Cloudy 55 12.8 45 7.2 69 69 SE 16 26 29.78 1008 10 16 N/A
1:54 pm 13:54 Cloudy with Light Rain 56 13.3 45 7.2 67 67 SE 22 35 29.72 1007 10 16 0.00 0.00
2:54 pm 14:54 Cloudy 59 15 48 8.9 67 67 SE 17 28 29.69 1005 10 16 0.00 0.00
3:54 pm 15:54 Cloudy 59 15 49 9.4 69 69 SE 20 31 29.67 1005 10 16 N/A
4:41 pm 16:41 Cloudy 58 14.4 49 9.4 72 72 SE 17 28 29.65 1004 10 16 N/A
4:54 pm 16:54 Cloudy 57 13.9 49 9.4 74 74 SE 21 33 29.66 1004 10 16 N/A
5:36 pm 17:36 Cloudy 57 13.9 50 10 78 78 SE 20 31 29.64 1004 10 16 N/A
5:54 pm 17:54 Cloudy 57 13.9 50 10 78 78 SE 16 26 29.66 1004 10 16 N/A
6:54 pm 18:54 Cloudy 57 13.9 51 10.6 81 81 SE 14 22 29.65 1004 10 16 N/A
7:28 pm 19:28 Cloudy 58 14.4 50 10 75 75 SE 17 28 29.63 1003 10 16 N/A
7:54 pm 19:54 Cloudy 58 14.4 50 10 75 75 SE 16 26 29.64 1004 10 16 N/A
8:02 pm 20:02 Cloudy 58 14.4 49 9.4 72 72 SE 18 30 29.63 1003 10 16 N/A
8:54 pm 20:54 Cloudy 58 14.4 49 9.4 72 72 SE 15 24 29.64 1004 10 16 N/A
9:54 pm 21:54 Cloudy 58 14.4 49 9.4 72 72 SE 16 26 29.61 1003 10 16 N/A
10:54 pm 22:54 Cloudy 59 15 50 10 72 72 SE 15 24 29.61 1003 10 16 N/A
11:54 pm 23:54 Cloudy 59 15 50 10 72 72 SE 15 24 29.62 1003 10 16 N/A

Powered by AerisWeather